{"data":{"norad_id":59737,"epoch":"2026-09-21T02:14:37.702752Z","epoch_age_seconds":120058,"freshness":"FRESH","line1":"1 59737U 24090H   26264.09349193 -.00000193  00000+0  25173-5 0  9990","line2":"2 59737  43.0013 160.0460 0000731 275.5919  84.4849 15.27575276133326","mean_motion":15.27575276,"eccentricity":7.31e-5,"inclination_deg":43.0013,"raan_deg":160.046,"arg_perigee_deg":275.5919,"mean_anomaly_deg":84.4849,"bstar":2.5173e-6,"rev_number":13332,"period_min":94.267040231934,"perigee_km":482.56168769391,"apogee_km":483.56479516921,"semimajor_km":6861.2002414316,"source":"CELESTRAK","updated_at":"2026-09-22T09:00:49.062965Z"}}